DW7589 Weather Reports


Display with metric or nautical units.
time (UTC)temp
F
wind
direction
speed
MPH
gust
MPH
rain 1hr
in
rain 24hr
in
rain mn
in
humidity
%
barometer
mb
20190117104521 56 197 4.0 8.0 0.00 0.00 0.00 93 1018.7
20190117103520 57 195 6.0 9.0 0.00 0.00 0.00 93 1018.6
20190117103021 57 197 5.0 9.0 0.00 0.00 0.00 93 1018.6
20190117102521 57 203 4.0 10.0 0.00 0.00 0.00 93 1018.7
20190117100520 57 198 5.0 13.0 0.00 0.00 0.00 93 1018.9
20190117100021 57 198 5.0 10.0 0.00 0.00 0.00 93 1018.9
20190117095520 57 199 6.0 12.0 0.00 0.00 0.00 93 1018.9
20190117094521 57 198 6.0 10.0 0.00 0.00 0.00 93 1019.1
20190117094020 58 199 7.0 10.0 0.00 0.00 0.00 93 1019.2
20190117093020 58 193 6.0 9.0 0.00 0.00 0.00 93 1019.1
20190117092520 58 193 5.0 8.0 0.00 0.00 0.00 93 1019.1
20190117092021 58 194 6.0 10.0 0.00 0.00 0.00 93 1019.1
20190117091520 58 194 7.0 10.0 0.00 0.00 0.00 93 1019.1
20190117091020 58 193 8.0 12.0 0.00 0.00 0.00 93 1019.0
20190117090520 58 193 8.0 12.0 0.00 0.00 0.00 93 1019.0
20190117090021 58 193 7.0 11.0 0.00 0.00 0.00 93 1019.0
20190117084020 58 198 5.0 9.0 0.00 0.00 0.00 94 1019.2
20190117082520 58 202 4.0 10.0 0.00 0.00 0.00 94 1019.3
20190117081520 58 203 3.0 7.0 0.00 0.00 0.00 94 1019.4
20190117080520 58 192 4.0 7.0 0.00 0.00 0.00 94 1019.3
20190117080020 58 194 5.0 8.0 0.00 0.00 0.00 94 1019.2
20190117075020 58 192 7.0 9.0 0.00 0.00 0.00 94 1019.1
20190117074020 58 192 7.0 11.0 0.00 0.00 0.00 95 1019.1
20190117073020 58 194 8.0 12.0 0.00 0.00 0.00 95 1019.1
20190117072519 58 193 8.0 11.0 0.00 0.00 0.00 95 1019.1
20190117071520 58 187 7.0 10.0 0.00 0.00 0.00 95 1019.1
20190117070520 58 184 6.0 12.0 0.00 0.00 0.00 95 1019.2
20190117065020 57 183 7.0 12.0 0.00 0.00 0.00 96 1019.6
20190117063020 57 170 6.0 9.0 0.00 0.00 0.00 96 1019.6
20190117060520 57 175 5.0 9.0 0.00 0.00 0.00 96 1020.0
20190117060021 56 184 5.0 9.0 0.00 0.00 0.00 96 1020.0
20190117055520 56 188 5.0 9.0 0.00 0.00 0.00 96 1020.2
20190117055020 56 190 6.0 8.0 0.00 0.00 0.00 96 1020.1
20190117054520 56 189 6.0 10.0 0.00 0.00 0.00 96 1020.0
20190117053020 56 186 6.0 9.0 0.00 0.00 0.00 96 1020.1
20190117052519 56 186 6.0 9.0 0.00 0.00 0.00 96 1020.3
20190117052020 56 182 5.0 10.0 0.00 0.00 0.00 96 1020.3
20190117051520 56 184 6.0 10.0 0.00 0.00 0.00 96 1020.3
20190117051020 56 187 6.0 10.0 0.00 0.00 0.00 96 1020.4
20190117050520 56 190 6.0 10.0 0.00 0.00 0.00 96 1020.4
20190117045019 56 173 5.0 9.0 0.00 0.00 0.00 96 1020.3
20190117044520 56 171 5.0 10.0 0.00 0.00 0.00 96 1020.3
20190117043520 56 176 6.0 9.0 0.00 0.00 0.00 96 1020.4
20190117043019 56 174 6.0 11.0 0.00 0.00 0.00 96 1020.5
20190117042520 56 176 6.0 11.0 0.00 0.00 0.00 96 1020.5
20190117042020 56 178 6.0 11.0 0.00 0.00 0.00 96 1020.6
20190117041520 56 184 6.0 10.0 0.00 0.00 0.00 96 1020.5
20190117041020 56 187 7.0 10.0 0.00 0.00 0.00 96 1020.5
20190117040520 56 179 6.0 10.0 0.00 0.00 0.00 96 1020.4
20190117040020 56 177 6.0 10.0 0.00 0.00 0.00 96 1020.4
20190117035520 56 182 7.0 11.0 0.00 0.00 0.00 96 1020.4
20190117034520 55 184 7.0 10.0 0.00 0.00 0.00 96 1020.4
20190117033520 55 174 7.0 12.0 0.00 0.00 0.00 96 1020.0
20190117033019 55 181 7.0 12.0 0.00 0.00 0.00 96 1020.0
20190117032020 55 176 7.0 12.0 0.00 0.00 0.00 96 1020.0
20190117031520 55 175 7.0 13.0 0.00 0.00 0.00 96 1020.0
20190117031019 55 172 7.0 14.0 0.00 0.00 0.00 96 1020.0
20190117030520 55 173 7.0 14.0 0.00 0.00 0.00 96 1019.9
20190117025520 55 172 7.0 13.0 0.00 0.00 0.00 96 1020.1
20190117024020 55 170 7.0 11.0 0.00 0.00 0.00 96 1019.9
20190117023019 55 173 7.0 12.0 0.00 0.00 0.00 95 1020.2
20190117021020 55 170 6.0 10.0 0.00 0.00 0.00 95 1020.4
20190117020520 55 171 6.0 10.0 0.00 0.00 0.00 95 1020.3
20190117020019 55 171 6.0 9.0 0.00 0.00 0.00 95 1020.3
20190117015519 55 176 5.0 9.0 0.00 0.00 0.00 95 1020.5
20190117015020 55 184 5.0 9.0 0.00 0.00 0.00 95 1020.6
20190117014520 55 185 6.0 9.0 0.00 0.00 0.00 95 1020.7
20190117014020 55 183 5.0 9.0 0.00 0.00 0.00 95 1020.6
20190117012520 55 170 7.0 10.0 0.00 0.00 0.00 95 1020.2
20190117012020 55 171 7.0 10.0 0.00 0.00 0.00 95 1020.2
20190117011019 55 173 8.0 10.0 0.00 0.00 0.00 95 1020.2
20190117010519 55 172 7.0 12.0 0.00 0.00 0.00 95 1020.1
20190117005019 55 172 7.0 12.0 0.00 0.00 0.00 94 1020.1
20190117004520 55 174 7.0 11.0 0.00 0.00 0.00 94 1020.1
20190117003019 55 174 8.0 11.0 0.00 0.00 0.00 94 1020.0
20190117000520 55 174 8.0 12.0 0.00 0.00 0.00 94 1020.0
20190117000019 55 173 7.0 11.0 0.00 0.00 0.00 94 1020.0
20190116234520 55 171 7.0 11.0 0.00 0.00 0.00 93 1019.9
20190116232019 56 168 7.0 14.0 0.00 0.00 0.00 92 1020.0
20190116231520 56 167 7.0 12.0 0.00 0.00 0.00 92 1020.0
20190116230519 56 170 8.0 14.0 0.00 0.00 0.00 91 1020.1
20190116230020 56 171 8.0 14.0 0.00 0.00 0.00 91 1020.2
20190116225520 56 172 8.0 12.0 0.00 0.00 0.00 90 1020.2
20190116224520 56 172 8.0 12.0 0.00 0.00 0.00 90 1020.4
20190116224020 56 172 8.0 12.0 0.00 0.00 0.00 90 1020.5
20190116221519 57 171 8.0 12.0 0.00 0.00 0.00 88 1020.5
20190116220519 57 173 7.0 11.0 0.00 0.00 0.00 88 1020.6
20190116220020 57 173 8.0 13.0 0.00 0.00 0.00 88 1020.6
20190116215020 57 172 8.0 13.0 0.00 0.00 0.00 88 1020.3
20190116214519 57 171 8.0 13.0 0.00 0.00 0.00 88 1020.4
20190116214019 58 170 8.0 13.0 0.00 0.00 0.00 87 1020.3
20190116213020 58 163 7.0 13.0 0.00 0.00 0.00 87 1020.3
20190116212519 58 169 8.0 13.0 0.00 0.00 0.00 87 1020.4
20190116212019 58 169 7.0 12.0 0.00 0.00 0.00 87 1020.4
20190116211519 58 162 7.0 12.0 0.00 0.00 0.00 86 1020.4
20190116211020 58 168 7.0 12.0 0.00 0.00 0.00 87 1020.3
20190116210519 58 167 8.0 12.0 0.00 0.00 0.00 87 1020.4
20190116205520 58 170 8.0 12.0 0.00 0.00 0.00 87 1020.5
20190116204520 58 165 8.0 12.0 0.00 0.00 0.00 87 1020.5
20190116203520 57 170 8.0 12.0 0.00 0.00 0.00 88 1020.8
20190116201519 57 173 8.0 14.0 0.00 0.00 0.00 88 1021.1
20190116201020 57 172 8.0 13.0 0.00 0.00 0.00 89 1021.2
20190116200520 56 171 8.0 13.0 0.00 0.00 0.00 89 1021.3
20190116200019 56 169 8.0 13.0 0.00 0.00 0.00 89 1021.3
20190116195519 56 170 8.0 13.0 0.00 0.00 0.00 90 1021.4
20190116195019 56 172 8.0 13.0 0.00 0.00 0.00 90 1021.4
20190116193019 56 178 6.0 10.0 0.00 0.00 0.00 90 1022.0
20190116192519 56 178 6.0 10.0 0.00 0.00 0.00 89 1022.1
20190116192020 56 183 7.0 10.0 0.00 0.00 0.00 89 1022.2
20190116191519 56 186 7.0 10.0 0.00 0.00 0.00 89 1022.3
20190116190020 56 175 7.0 12.0 0.00 0.00 0.00 89 1022.7
20190116185019 56 179 7.0 10.0 0.00 0.00 0.00 89 1022.9
20190116184019 55 182 7.0 11.0 0.00 0.00 0.00 89 1023.0
20190116183519 55 188 7.0 11.0 0.00 0.00 0.00 89 1023.1
20190116183020 55 185 8.0 11.0 0.00 0.00 0.00 90 1023.2
20190116182519 55 188 7.0 12.0 0.00 0.00 0.00 89 1023.5
20190116181519 56 186 7.0 11.0 0.00 0.00 0.00 89 1023.7
20190116181020 55 188 7.0 10.0 0.00 0.00 0.00 89 1023.7
20190116180519 55 184 6.0 10.0 0.00 0.00 0.00 89 1023.8
20190116175520 55 192 6.0 9.0 0.00 0.00 0.00 90 1024.1
20190116175019 55 184 6.0 10.0 0.00 0.00 0.00 90 1024.1
20190116174520 55 181 6.0 10.0 0.00 0.00 0.00 90 1024.3
20190116173519 55 172 6.0 10.0 0.00 0.00 0.00 91 1024.4
20190116172520 54 169 6.0 10.0 0.00 0.00 0.00 91 1024.2
20190116171519 54 174 5.0 10.0 0.00 0.00 0.00 92 1024.7
20190116171019 54 174 5.0 9.0 0.00 0.00 0.00 92 1024.8
20190116170520 53 169 5.0 9.0 0.00 0.00 0.00 93 1024.7
20190116170019 53 171 6.0 11.0 0.00 0.00 0.00 93 1024.7
20190116164019 52 164 5.0 10.0 0.00 0.00 0.00 94 1024.5
20190116163519 52 168 6.0 10.0 0.00 0.00 0.00 94 1024.6
20190116163020 52 164 5.0 8.0 0.00 0.00 0.00 94 1024.6
20190116162519 52 165 6.0 12.0 0.00 0.00 0.00 94 1024.6
20190116162019 51 171 6.0 12.0 0.00 0.00 0.00 95 1024.7
20190116161519 51 170 5.0 11.0 0.00 0.00 0.00 95 1024.7
20190116161020 51 171 5.0 8.0 0.00 0.00 0.00 95 1024.6
20190116160519 51 171 6.0 10.0 0.00 0.00 0.00 95 1024.6
20190116160019 51 170 6.0 10.0 0.00 0.00 0.00 95 1024.5
20190116154019 50 171 5.0 8.0 0.00 0.00 0.00 95 1024.6
20190116153519 50 170 5.0 9.0 0.00 0.00 0.00 95 1024.5
20190116151019 50 171 4.0 6.0 0.00 0.00 0.00 95 1024.5
20190116150519 50 174 3.0 6.0 0.00 0.00 0.00 95 1024.4
20190116150019 50 173 4.0 7.0 0.00 0.00 0.00 95 1024.3
20190116145519 49 170 4.0 7.0 0.00 0.00 0.00 95 1024.2
20190116145018 49 162 3.0 6.0 0.00 0.00 0.00 95 1024.1
20190116144519 49 161 3.0 6.0 0.00 0.00 0.00 95 1024.0
20190116143519 49 159 3.0 5.0 0.00 0.00 0.00 95 1024.0
20190116142518 49 175 2.0 4.0 0.00 0.00 0.00 95 1024.1
20190116142018 49 172 2.0 4.0 0.00 0.00 0.00 95 1024.1
20190116141519 49 166 3.0 5.0 0.00 0.00 0.00 95 1024.0
20190116141019 49 169 3.0 6.0 0.00 0.00 0.00 95 1024.0
20190116135519 49 163 3.0 5.0 0.00 0.00 0.00 95 1023.9
20190116135019 49 171 2.0 5.0 0.00 0.00 0.00 95 1023.9
20190116134519 49 170 3.0 5.0 0.00 0.00 0.00 94 1023.9
20190116134018 49 168 3.0 5.0 0.00 0.00 0.00 94 1023.9
20190116133519 48 172 2.0 5.0 0.00 0.00 0.00 94 1023.8
20190116133019 48 177 2.0 4.0 0.00 0.00 0.00 94 1023.8
20190116132020 48 175 3.0 6.0 0.00 0.00 0.00 94 1023.8
20190116131519 48 174 4.0 6.0 0.00 0.00 0.00 94 1023.9
20190116130519 48 171 4.0 6.0 0.00 0.00 0.00 94 1023.8
20190116130018 48 172 3.0 6.0 0.00 0.00 0.00 94 1023.8
20190116125019 48 168 3.0 5.0 0.00 0.00 0.00 94 1023.7
20190116124019 48 172 3.0 5.0 0.00 0.00 0.00 93 1023.7
20190116123519 49 177 3.0 5.0 0.00 0.00 0.00 93 1023.7
20190116121519 49 173 5.0 8.0 0.00 0.00 0.00 92 1023.4
20190116115019 49 169 5.0 7.0 0.00 0.00 0.00 92 1023.2
20190116114019 49 171 6.0 9.0 0.00 0.00 0.00 92 1023.1
20190116113019 48 173 5.0 9.0 0.00 0.00 0.00 92 1023.0
20190116112518 48 171 4.0 7.0 0.00 0.00 0.00 92 1023.1
20190116112019 48 167 5.0 6.0 0.00 0.00 0.00 92 1023.1
20190116111519 48 168 4.0 6.0 0.00 0.00 0.00 92 1023.1
20190116110518 48 176 4.0 8.0 0.00 0.00 0.00 92 1023.1